DeKalb, IL

2:33 AM CDT on April 25, 2018 (GMT -0500)
De Kalb Taylor Municipal

Weather History for KDKB - April, 2014

Change the Weather History Date:

Wednesday, April 23, 2014

  Actual Average (KARR) Record (KARR)
Temperature  
Mean Temperature 41 °F -  
Max Temperature 55 °F 60 °F 76 °F (2008)
Min Temperature 28 °F 38 °F 23 °F (2003)
Degree Days  
Heating Degree Days 24    
Moisture  
Dew Point 27 °F    
Average Humidity 59    
Maximum Humidity 90    
Minimum Humidity 32    
Precipitation  
Precipitation 0.03 in - - ()
Sea Level Pressure  
Sea Level Pressure 30.12 in    
Wind  
Wind Speed 6 mph (ENE)    
Max Wind Speed 16 mph    
Max Gust Speed 16 mph    
Visibility 10 miles    
Events Rain    
Averages and records for this station are not official NWS values.
T = Trace of Precipitation, MM = Missing Value Source: NWS Daily Summary

Daily Weather History Graph

Daily Weather History Graph

Search for Another Location

Airport or City:

Astronomy

Apr. 23, 2014 Rise Set
Actual Time 6:02 AM CDT 7:44 PM CDT
Civil Twilight 5:32 AM CDT 8:14 PM CDT
Nautical Twilight 4:56 AM CDT 8:50 PM CDT
Astronomical Twilight 4:18 AM CDT 9:29 PM CDT
Moon 2:39 AM CDT (4/23) 1:47 PM CDT (4/23)
Length of Visible Light 14h 41m
Length of Day
13h 42m
Waning Crescent, 34% of the Moon is Illuminated
Apr 23
Waning Crescent
Apr 29
New
May 6
First Quarter
May 14
Full
May 21
Last Quarter

Hourly Weather History & Observations

Time (CDT) Temp. Windchill Dew Point Humidity Pressure Visibility Wind Dir Wind Speed Gust Speed Precip Events Conditions
12:15 AM 35.6 °F 32.8 °F 26.1 °F 68% 30.10 in 10.0 mi East 3.5 mph - N/A   Clear
12:35 AM 34.9 °F - 26.1 °F 70% 30.11 in 10.0 mi Calm Calm - N/A   Clear
12:55 AM 34.5 °F - 26.2 °F 72% 30.11 in 10.0 mi Calm Calm - N/A   Clear
1:15 AM 34.9 °F 32.0 °F 26.4 °F 71% 30.11 in 10.0 mi ENE 3.5 mph - N/A   Clear
1:35 AM 34.2 °F 30.0 °F 26.2 °F 73% 30.11 in 10.0 mi ENE 4.6 mph - N/A   Clear
1:55 AM 31.6 °F 26.0 °F 25.0 °F 76% 30.11 in 10.0 mi ENE 5.8 mph - N/A   Clear
2:15 AM 30.9 °F 25.2 °F 25.5 °F 80% 30.11 in 10.0 mi NE 5.8 mph - N/A   Clear
2:35 AM 30.0 °F 23.2 °F 25.2 °F 82% 30.11 in 10.0 mi NE 6.9 mph - N/A   Clear
2:55 AM 31.5 °F 24.9 °F 25.7 °F 79% 30.11 in 10.0 mi ENE 6.9 mph - N/A   Clear
3:15 AM 30.7 °F 24.1 °F 25.5 °F 81% 30.12 in 10.0 mi ENE 6.9 mph - N/A   Clear
3:35 AM 28.8 °F 20.2 °F 24.8 °F 85% 30.12 in 10.0 mi NE 9.2 mph - N/A   Clear
3:55 AM 31.6 °F 23.7 °F 27.1 °F 83% 30.13 in 10.0 mi ENE 9.2 mph - N/A   Clear
4:15 AM 31.1 °F 24.5 °F 27.0 °F 85% 30.13 in 10.0 mi ENE 6.9 mph - N/A   Clear
4:35 AM 30.2 °F 23.4 °F 26.6 °F 86% 30.14 in 10.0 mi NE 6.9 mph - N/A   Clear
4:55 AM 28.4 °F 22.2 °F 25.2 °F 88% 30.14 in 10.0 mi NE 5.8 mph - N/A   Clear
5:15 AM 28.2 °F 22.0 °F 24.8 °F 87% 30.14 in 10.0 mi NE 5.8 mph - N/A   Clear
5:35 AM 29.7 °F - 26.1 °F 86% 30.15 in 10.0 mi Calm Calm - N/A   Clear
5:55 AM 28.9 °F 25.2 °F 26.2 °F 90% 30.15 in 10.0 mi NE 3.5 mph - N/A   Clear
6:15 AM 28.8 °F 23.7 °F 25.9 °F 89% 30.16 in 10.0 mi NE 4.6 mph - N/A   Clear
6:35 AM 29.1 °F 25.4 °F 26.1 °F 88% 30.16 in 10.0 mi NNE 3.5 mph - N/A   Clear
6:55 AM 31.1 °F 26.4 °F 27.5 °F 87% 30.16 in 10.0 mi NNE 4.6 mph - N/A   Clear
7:15 AM 32.2 °F 27.7 °F 28.8 °F 87% 30.16 in 10.0 mi NE 4.6 mph - N/A   Clear
7:35 AM 33.8 °F 27.7 °F 29.7 °F 85% 30.16 in 10.0 mi ENE 6.9 mph - N/A   Clear
7:55 AM 35.2 °F 28.8 °F 30.0 °F 81% 30.17 in 10.0 mi ENE 8.1 mph - N/A   Clear
8:15 AM 36.5 °F 29.2 °F 29.5 °F 76% 30.18 in 10.0 mi NE 10.4 mph - N/A   Clear
8:35 AM 38.1 °F 30.2 °F 29.5 °F 71% 30.18 in 10.0 mi ENE 12.7 mph - N/A   Clear
8:55 AM 39.6 °F 33.0 °F 28.8 °F 65% 30.18 in 10.0 mi ENE 10.4 mph - N/A   Clear
9:15 AM 40.1 °F 34.7 °F 27.9 °F 62% 30.17 in 10.0 mi ENE 8.1 mph - N/A   Clear
9:35 AM 41.7 °F 36.1 °F 28.4 °F 59% 30.17 in 10.0 mi East 9.2 mph 16.1 mph N/A   Clear
9:55 AM 43.7 °F 38.1 °F 28.2 °F 54% 30.17 in 10.0 mi ENE 10.4 mph - N/A   Clear
10:15 AM 44.2 °F 39.7 °F 27.5 °F 52% 30.18 in 10.0 mi East 8.1 mph - N/A   Clear
10:35 AM 45.0 °F 40.1 °F 27.1 °F 50% 30.18 in 10.0 mi ESE 9.2 mph - N/A   Clear
10:55 AM 45.7 °F 40.2 °F 27.0 °F 48% 30.17 in 10.0 mi East 11.5 mph - N/A   Clear
11:15 AM 46.4 °F 41.9 °F 26.1 °F 45% 30.17 in 10.0 mi East 9.2 mph - N/A   Clear
11:35 AM 46.8 °F - 26.1 °F 44% 30.17 in 10.0 mi ENE 4.6 mph - N/A   Clear
11:55 AM 48.2 °F - 26.6 °F 43% 30.17 in 10.0 mi East 6.9 mph - N/A   Clear
12:15 PM 49.3 °F - 26.2 °F 41% 30.17 in 10.0 mi ENE 8.1 mph - N/A   Clear
12:35 PM 50.4 °F - 27.3 °F 41% 30.16 in 10.0 mi East 9.2 mph - N/A   Clear
12:55 PM 50.9 °F - 27.1 °F 40% 30.15 in 10.0 mi ESE 4.6 mph - N/A   Clear
1:15 PM 50.7 °F - 26.1 °F 38% 30.15 in 10.0 mi Calm Calm - N/A   Clear
1:35 PM 51.3 °F - 26.4 °F 38% 30.14 in 10.0 mi East 6.9 mph - N/A   Clear
1:55 PM 52.5 °F - 26.2 °F 36% 30.14 in 10.0 mi East 9.2 mph - N/A   Clear
2:15 PM 53.1 °F - 26.1 °F 35% 30.13 in 10.0 mi East 6.9 mph - N/A   Clear
2:35 PM 54.0 °F - 26.6 °F 35% 30.12 in 10.0 mi East 6.9 mph - N/A   Clear
2:55 PM 53.6 °F - 24.4 °F 32% 30.11 in 10.0 mi ENE 6.9 mph - N/A   Clear
3:15 PM 54.5 °F - 25.3 °F 32% 30.11 in 10.0 mi East 8.1 mph - N/A   Clear
3:35 PM 54.1 °F - 25.2 °F 33% 30.11 in 10.0 mi East 8.1 mph - N/A   Clear
3:55 PM 53.1 °F - 24.3 °F 33% 30.11 in 10.0 mi East 9.2 mph - N/A   Scattered Clouds
4:15 PM 53.1 °F - 24.6 °F 33% 30.11 in 10.0 mi East 5.8 mph - N/A   Scattered Clouds
4:35 PM 52.7 °F - 25.0 °F 34% 30.11 in 10.0 mi ENE 9.2 mph - N/A   Mostly Cloudy
4:55 PM 52.2 °F - 24.4 °F 34% 30.11 in 10.0 mi East 5.8 mph - N/A   Scattered Clouds
5:15 PM 51.6 °F - 24.4 °F 35% 30.11 in 10.0 mi East 8.1 mph - N/A   Scattered Clouds
5:35 PM 51.3 °F - 24.8 °F 36% 30.11 in 10.0 mi East 5.8 mph - N/A   Mostly Cloudy
5:55 PM 50.9 °F - 25.2 °F 37% 30.10 in 10.0 mi East 9.2 mph - N/A   Overcast
6:15 PM 50.2 °F - 25.0 °F 37% 30.09 in 10.0 mi East 9.2 mph - N/A   Overcast
6:35 PM 49.6 °F - 25.5 °F 39% 30.09 in 10.0 mi East 10.4 mph - N/A   Overcast
6:55 PM 48.7 °F - 25.7 °F 41% 30.09 in 10.0 mi East 9.2 mph - N/A   Overcast
7:15 PM 47.7 °F - 25.5 °F 42% 30.09 in 10.0 mi East 10.4 mph - N/A   Overcast
7:35 PM 46.9 °F - 25.7 °F 44% 30.08 in 10.0 mi East 12.7 mph - N/A   Overcast
7:55 PM 46.2 °F 40.5 °F 25.5 °F 44% 30.07 in 10.0 mi East 12.7 mph - N/A   Overcast
8:15 PM 45.5 °F 38.9 °F 25.2 °F 45% 30.06 in 10.0 mi East 15.0 mph - N/A   Overcast
8:35 PM 44.8 °F 38.3 °F 24.8 °F 46% 30.06 in 10.0 mi East 13.8 mph - N/A   Overcast
8:55 PM 44.1 °F 36.8 °F 24.6 °F 46% 30.05 in 10.0 mi East 16.1 mph - N/A   Overcast
9:15 PM 43.2 °F 36.2 °F 25.2 °F 49% 30.06 in 10.0 mi East 13.8 mph - N/A Rain Light Rain
9:55 PM 39.7 °F 32.7 °F 29.7 °F 67% 30.05 in 10.0 mi East 11.5 mph - N/A   Light Drizzle
10:15 PM 38.7 °F 30.9 °F 30.0 °F 71% 30.04 in 10.0 mi East 12.7 mph - 0.01 in Rain Light Rain
10:35 PM 38.1 °F 30.7 °F 30.0 °F 73% 30.02 in 10.0 mi East 11.5 mph - 0.02 in Rain Light Rain
10:55 PM 37.6 °F 30.0 °F 30.9 °F 77% 30.01 in 10.0 mi ESE 11.5 mph - 0.03 in Rain Light Rain
11:15 PM 37.6 °F 31.0 °F 30.7 °F 76% 30.02 in 10.0 mi East 9.2 mph - N/A   Drizzle
11:35 PM 37.8 °F 33.3 °F 30.9 °F 76% 30.03 in 10.0 mi ESE 5.8 mph - N/A   Overcast
11:55 PM 37.9 °F 34.4 °F 31.3 °F 77% 30.04 in 10.0 mi East 4.6 mph - N/A   Overcast